[[{"header":{"parameterUnit":"m.s-1","parameterCategory":1,"la1":30.2991,"la2":30.254,"lo1":-89.0895,"lo2":-89.0444,"dy":0.0017,"dx":0.0017,"nx":28,"ny":28,"refTime":"2025-04-19T03:00:00:Z","depth":0,"parameterNumber":2,"parameterNumberName":"U-component_of_WINDS"},"data":[0,0,0,0,0,0,0,0,0,0,0,0,0,0,0,0,0,0,0,0,0,0,0,0,0,0,0,0,0,0,0,0,0,0,0,0,0,0,0,0,0,0,0,0,0,0,0,0,0,0,0,0,0,0,0,0,0,0,-4.4213,-4.4214,0,-4.4328,-4.4329,-4.433,-4.4308,-4.4306,-4.4304,-4.4302,-4.4417,-4.4422,-4.4427,0,0,0,0,0,0,0,0,0,0,0,0,0,-4.3973,-4.3978,-4.4213,-4.4214,-4.4216,-4.4328,-4.4329,-4.4331,-4.4308,-4.4306,-4.4303,-4.4301,-4.4416,-4.4422,-4.4428,0,0,0,0,0,0,0,0,0,0,0,0,0,-4.4081,-4.3979,-4.4213,-4.4218,-4.422,-4.4327,-4.4329,-4.4331,-4.4309,-4.4305,-4.4302,-4.4299,-4.4414,-4.4421,-4.4428,-4.4537,0,0,-4.4451,-4.4455,0,0,0,0,0,0,0,0,-4.4075,-4.409,-4.4216,-4.4218,-4.422,-4.43,-4.4287,-4.44,-4.4309,-4.4275,-4.4302,-4.4298,-4.4381,-4.4391,-4.4419,-4.4543,-4.4548,-4.4452,-4.4457,-4.446,-4.4462,0,0,0,0,0,0,0,-4.4068,-4.4085,-4.4258,-4.4218,-4.422,-4.4214,-4.4226,-4.4308,-4.4344,-4.4278,-4.4276,-4.429,-4.4381,-4.4412,-4.4422,-4.4549,-4.4452,-4.4459,-4.4463,-4.4466,-4.4768,-4.4771,0,0,0,0,0,0,-4.4059,-4.4079,-4.4255,-4.4262,-4.4138,-4.4221,-4.4235,-4.4278,-4.4343,-4.435,-4.4293,-4.4289,-4.4401,-4.4413,-4.4426,-4.4557,-4.446,-4.4467,-4.4471,-4.4764,-4.4769,-4.4772,0,0,0,0,0,0,-4.4054,-4.4075,-4.425,-4.417,-4.4192,-4.4229,-4.4277,-4.4282,-4.4312,-4.4354,-4.436,-4.4318,-4.4399,-4.4415,-4.451,-4.456,-4.447,-4.4477,-4.476,-4.4766,-4.4771,-4.482,0,0,0,0,0,0,-4.4047,-4.4073,-4.4115,-4.4171,-4.4196,-4.4333,-4.428,-4.4286,-4.4325,-4.4321,-4.4379,-4.4386,-4.4397,-4.4499,-4.4517,-4.4569,-4.4483,-4.4756,-4.4763,-4.4769,-4.4814,-4.4827,-4.4837,0,0,0,0,0,-4.4038,-4.4124,-4.4117,-4.4138,-4.425,-4.4336,-4.435,-4.4362,-4.433,-4.4372,-4.4399,-4.4384,-4.4553,-4.4509,-4.4529,-4.4584,-4.4753,-4.4761,-4.4768,-4.4809,-4.4824,-4.4837,0,0,0,0,0,0,-4.4071,-4.4131,-4.4124,-4.4231,-4.4279,-4.4332,-4.4385,-4.4378,-4.4435,-4.4428,-4.4441,-4.4454,-4.455,-4.4577,-4.4527,-4.4693,-4.4648,-4.466,-4.4672,-4.4686,-4.4698,-4.4688,-4.4489,0,0,0,0,0,-4.4091,-4.4157,-4.4205,-4.4295,-4.4319,-4.4348,-4.4386,-4.4391,-4.4441,-4.4461,-4.4495,-4.4543,-4.4607,-4.4648,-4.4709,-4.4819,-4.4831,-4.4867,-4.4878,-4.4887,-4.4897,-4.4957,-4.4973,-4.4798,-4.4798,-4.4798,0,0,-4.4133,-4.4173,-4.4214,-4.4302,-4.434,-4.4407,-4.4365,-4.4438,-4.4487,-4.4471,-4.4563,-4.459,-4.4645,-4.4747,-4.4794,-4.4772,-4.4949,-4.4898,-4.4905,-4.491,-4.4967,-4.4983,-4.4998,-4.4804,-4.4803,-4.4802,0,0,-4.4242,-4.428,-4.4358,-4.4397,-4.4454,-4.4473,-4.4492,-4.4547,-4.4565,-4.4657,-4.4647,-4.4706,-4.4816,-4.4855,-4.4889,-4.5015,-4.5003,-4.5034,-4.5093,-4.5151,-4.5165,-4.5177,-4.5221,-4.5236,-4.5044,-4.5045,-4.5045,0,-4.4285,-4.4386,-4.4399,-4.4473,-4.4512,-4.4502,-4.4581,-4.4618,-4.4692,-4.4719,-4.4694,-4.4832,-4.4868,-4.4979,-4.501,-4.5039,-4.506,-4.5027,-4.5162,-4.5174,-4.5186,-4.5228,-4.5244,-4.5048,-4.5048,-4.5047,-4.5047,0,-4.4437,-4.4507,-4.4563,-4.4636,-4.4681,-4.4757,-4.4781,-4.4826,-4.4828,-4.485,-4.4944,-4.4987,-4.5056,-4.5084,-4.5086,-4.5196,-4.518,-4.5159,-4.5113,-4.5206,-4.5245,-4.5261,-4.5053,-4.5052,-4.5051,-4.505,0,0,-4.4568,-4.4648,-4.4668,-4.4701,-4.4764,-4.4819,-4.4894,-4.4963,-4.5001,-4.5053,-4.5116,-4.521,-4.5191,-4.523,-4.5237,-4.5288,-4.5383,-4.526,-4.5261,-4.528,-4.5505,-4.552,-4.5538,-4.5376,-4.538,-4.5382,-4.55,0,-4.4682,-4.4816,-4.483,-4.4949,-4.5014,-4.5006,-4.5072,-4.5118,-4.5141,-4.5198,-4.5223,-4.5289,-4.5259,-4.5283,-4.5333,-4.5361,-4.5428,-4.5353,-4.5434,-4.5437,-4.5419,-4.5559,-4.5575,-4.5684,-4.5516,-4.5519,-4.5521,0,-4.4832,-4.4889,-4.5015,-4.507,-4.5097,-4.5156,-4.522,-4.5276,-4.5328,-4.5341,-4.5386,-4.5386,-4.5464,-4.5417,-4.5524,-4.5472,-4.5507,-4.5526,-4.553,-4.5537,-4.5483,-4.5568,-4.5719,-4.5735,-4.5545,-4.5543,-4.5541,0,-4.4914,-4.5022,-4.5111,-4.514,-4.5206,-4.5248,-4.5277,-4.5326,-4.5367,-4.5423,-4.5449,-4.5514,-4.5549,-4.5599,-4.5617,-4.5581,-4.5723,-4.5677,-4.5734,-4.5734,-4.5763,-4.5761,-4.592,-4.5788,-4.5788,-4.5788,-4.5787,0,-4.5038,-4.5115,-4.5149,-4.5204,-4.529,-4.5306,-4.539,-4.5418,-4.5462,-4.5521,-4.5519,-4.5575,-4.5596,-4.5655,-4.567,-4.5756,-4.5772,-4.5784,-4.5786,-4.5783,-4.5782,-4.5805,-4.5797,-4.5792,-4.5791,-4.579,-4.5789,0,-4.5143,-4.5169,-4.5265,-4.5321,-4.5337,-4.5398,-4.5445,-4.5497,-4.552,-4.5595,-4.5614,-4.5649,-4.5719,-4.5742,-4.5827,-4.5837,-4.5936,-4.5933,-4.5919,-4.5919,-4.5974,-4.5968,-4.6153,-4.6178,-4.6031,-4.6032,-4.6033,0,-4.522,-4.5279,-4.5341,-4.5381,-4.5413,-4.5477,-4.5519,-4.5537,-4.558,-4.5645,-4.569,-4.5759,-4.5815,-4.5927,-4.596,-4.6025,-4.6022,-4.6083,-4.6031,-4.6026,-4.6021,-4.6017,-4.6023,-4.6091,-4.6093,-4.6094,-4.6095,0,-4.5354,-4.5364,-4.5424,-4.5489,-4.5539,-4.5591,-4.5641,-4.5674,-4.57,-4.5748,-4.582,-4.5864,-4.595,-4.6019,-4.6085,-4.6115,-4.6109,-4.6111,-4.6128,-4.6124,-4.6113,-4.6118,-4.5943,-4.6106,-4.6105,-4.6104,-4.6104,-4.6103,-4.5447,-4.5499,-4.555,-4.5617,-4.5657,-4.5704,-4.5757,-4.5786,-4.5846,-4.5918,-4.5926,-4.6003,-4.6054,-4.6142,-4.6175,-4.6236,-4.6219,-4.6243,-4.6249,-4.6254,-4.6257,-4.6105,-4.6248,-4.6248,-4.6247,-4.6247,-4.6247,0,-4.5579,-4.5612,-4.5674,-4.5744,-4.5797,-4.5789,-4.5844,-4.5888,-4.5956,-4.6004,-4.606,-4.6143,-4.621,-4.6248,-4.6315,-4.6356,-4.6355,-4.6373,-4.6369,-4.6376,-4.627,-4.6248,-4.6372,-4.6372,-4.6372,-4.6372,-4.6372,-4.6372,-4.5654,-4.5741,-4.5758,-4.5865,-4.5898,-4.5973,-4.6006,-4.6049,-4.6087,-4.618,-4.6235,-4.626,-4.6305,-4.6375,-4.6436,-4.6446,-4.647,-4.6489,-4.6497,-4.6396,-4.6383,-4.6371,-4.6351,-4.6495,-4.6495,-4.6598,-4.6599,-4.6599]},{"header":{"parameterUnit":"m.s-1","parameterCategory":1,"la1":30.2991,"la2":30.254,"lo1":-89.0895,"lo2":-89.0444,"dy":0.0017,"dx":0.0017,"nx":28,"ny":28,"refTime":"2025-04-19T03:00:00:Z","depth":0,"parameterNumber":3,"parameterNumberName":"V-component_of_WINDS"},"data":[0,0,0,0,0,0,0,0,0,0,0,0,0,0,0,0,0,0,0,0,0,0,0,0,0,0,0,0,0,0,0,0,0,0,0,0,0,0,0,0,0,0,0,0,0,0,0,0,0,0,0,0,0,0,0,0,0,0,3.3693,3.3694,0,3.3773,3.3774,3.3775,3.3776,3.3775,3.3774,3.3773,3.385,3.3853,3.3856,0,0,0,0,0,0,0,0,0,0,0,0,0,3.3538,3.3541,3.3693,3.3694,3.3695,3.3773,3.3774,3.3775,3.3776,3.3775,3.3774,3.3772,3.3849,3.3853,3.3856,0,0,0,0,0,0,0,0,0,0,0,0,0,3.361,3.3542,3.3693,3.3705,3.3707,3.3773,3.3774,3.3776,3.3776,3.3775,3.3773,3.3772,3.3848,3.3852,3.3857,3.3915,0,0,3.3871,3.3873,0,0,0,0,0,0,0,0,3.3606,3.3616,3.3702,3.3704,3.3707,3.3763,3.3748,3.3822,3.3777,3.375,3.3773,3.3771,3.3822,3.3829,3.3847,3.3918,3.3922,3.3871,3.3874,3.3876,3.3877,0,0,0,0,0,0,0,3.3601,3.3613,3.3725,3.3704,3.3706,3.3706,3.3714,3.3762,3.3793,3.3752,3.3752,3.3762,3.3823,3.3843,3.3849,3.3923,3.3871,3.3875,3.3878,3.3879,3.4047,3.4048,0,0,0,0,0,0,3.3594,3.3608,3.3722,3.3727,3.3652,3.371,3.3719,3.3746,3.3793,3.3799,3.3763,3.3762,3.3836,3.3843,3.3851,3.3923,3.3876,3.388,3.3882,3.4045,3.4047,3.4049,0,0,0,0,0,0,3.3591,3.3605,3.3719,3.3668,3.3683,3.3714,3.3744,3.3749,3.3768,3.3801,3.3807,3.3778,3.3835,3.3845,3.39,3.3925,3.3882,3.3886,3.4043,3.4046,3.4048,3.4065,0,0,0,0,0,0,3.3587,3.3603,3.3626,3.3669,3.3685,3.3767,3.3746,3.3751,3.3777,3.3775,3.3816,3.3821,3.3834,3.3893,3.3904,3.3931,3.3889,3.4041,3.4044,3.4047,3.4063,3.4068,3.4073,0,0,0,0,0,3.3581,3.3627,3.3627,3.3641,3.3715,3.3768,3.3778,3.3793,3.3779,3.3802,3.3823,3.382,3.3921,3.3898,3.3911,3.3939,3.4039,3.4043,3.4047,3.406,3.4067,3.4073,0,0,0,0,0,0,3.3584,3.3632,3.3634,3.3695,3.3728,3.3768,3.3797,3.3799,3.3836,3.3833,3.3849,3.3858,3.3913,3.3931,3.3906,3.3998,3.3978,3.3985,3.3984,3.3991,3.3996,3.399,3.3893,0,0,0,0,0,3.3593,3.3633,3.3673,3.3722,3.3739,3.3766,3.3789,3.3799,3.3833,3.3846,3.3871,3.3904,3.3943,3.3968,3.4005,3.4066,3.4075,3.4092,3.4097,3.4101,3.4106,3.414,3.4148,3.4062,3.4062,3.4062,0,0,3.3609,3.3641,3.3665,3.3724,3.3751,3.3792,3.3777,3.3821,3.3851,3.3852,3.3906,3.3926,3.3963,3.402,3.4047,3.4038,3.4132,3.4106,3.4109,3.4112,3.4145,3.4153,3.416,3.4065,3.4064,3.4064,0,0,3.3661,3.3689,3.3734,3.3761,3.3803,3.382,3.3831,3.3872,3.3886,3.3941,3.3943,3.3978,3.4045,3.4072,3.4094,3.4158,3.4156,3.4169,3.4196,3.4229,3.4236,3.4242,3.4265,3.4273,3.4175,3.4175,3.4175,0,3.3676,3.3739,3.3756,3.3801,3.3827,3.3832,3.3878,3.3903,3.3954,3.3971,3.396,3.4046,3.4071,3.4135,3.4151,3.4169,3.4181,3.4164,3.4234,3.424,3.4246,3.4268,3.4276,3.4176,3.4176,3.4176,3.4175,0,3.3755,3.3799,3.383,3.3882,3.3911,3.3955,3.3979,3.4007,3.4014,3.4032,3.4088,3.4119,3.4163,3.4179,3.4186,3.4245,3.4238,3.4231,3.421,3.4255,3.4276,3.4284,3.4178,3.4177,3.4177,3.4177,0,0,3.3809,3.3872,3.3883,3.3906,3.3953,3.3987,3.4032,3.4077,3.4101,3.4136,3.4173,3.4231,3.4225,3.425,3.426,3.4289,3.4337,3.4277,3.4279,3.4287,3.4405,3.441,3.442,3.4337,3.4339,3.434,3.4402,0,3.3866,3.3947,3.3965,3.4035,3.4076,3.4082,3.4121,3.4154,3.4173,3.4209,3.4229,3.427,3.4259,3.4274,3.4303,3.4325,3.4361,3.4321,3.4372,3.4373,3.4362,3.443,3.4436,3.4492,3.441,3.4411,3.4412,0,3.3942,3.3981,3.4056,3.4099,3.4116,3.4151,3.4195,3.423,3.4267,3.4279,3.4308,3.4315,3.4362,3.434,3.4404,3.4377,3.4399,3.4413,3.4415,3.442,3.4395,3.4437,3.4511,3.4519,3.4425,3.4424,3.4423,0,3.3974,3.4046,3.41,3.412,3.4171,3.4196,3.4218,3.4254,3.428,3.4318,3.4335,3.4377,3.44,3.4432,3.445,3.4433,3.4513,3.4493,3.4523,3.4523,3.4539,3.4538,3.4617,3.4554,3.4554,3.4553,3.4553,0,3.4035,3.408,3.4115,3.4148,3.4199,3.422,3.4269,3.4291,3.4323,3.436,3.4368,3.4402,3.4424,3.4461,3.4476,3.4527,3.4537,3.4547,3.455,3.4546,3.4545,3.456,3.4556,3.4556,3.4555,3.4555,3.4554,0,3.4079,3.4105,3.4164,3.4209,3.4221,3.4256,3.4294,3.4326,3.4346,3.4393,3.4405,3.4435,3.448,3.4501,3.4556,3.4565,3.4623,3.4624,3.4611,3.4612,3.4641,3.4638,3.4733,3.4747,3.4675,3.4675,3.4676,0,3.4116,3.4152,3.4201,3.4227,3.425,3.4292,3.432,3.4341,3.437,3.4416,3.4442,3.4487,3.4525,3.4595,3.4621,3.4663,3.4665,3.4695,3.4671,3.4666,3.4665,3.4663,3.4667,3.4699,3.47,3.4701,3.4701,0,3.4179,3.4191,3.4231,3.4277,3.431,3.4346,3.4382,3.4402,3.4429,3.4461,3.4507,3.4537,3.4594,3.4638,3.4683,3.4704,3.4707,3.4709,3.4718,3.4714,3.4705,3.4711,3.4623,3.4706,3.4706,3.4705,3.4705,3.4705,3.4221,3.4253,3.4293,3.4338,3.4368,3.4401,3.4434,3.4459,3.4499,3.4548,3.4558,3.4607,3.4644,3.4704,3.4728,3.4766,3.4759,3.4772,3.4776,3.4778,3.478,3.47,3.4774,3.4774,3.4774,3.4774,3.4774,0,3.4284,3.4311,3.4353,3.4403,3.4439,3.4441,3.4481,3.451,3.4554,3.4589,3.4626,3.468,3.4724,3.4754,3.4798,3.4823,3.4826,3.4834,3.4832,3.4837,3.4784,3.4771,3.4831,3.4831,3.4831,3.4831,3.4831,3.4831,3.4322,3.4376,3.4393,3.4462,3.4488,3.4538,3.4561,3.4591,3.462,3.468,3.4717,3.4738,3.4771,3.4818,3.4858,3.4866,3.4882,3.489,3.4898,3.4847,3.4841,3.4835,3.4823,3.4893,3.4894,3.4948,3.4948,3.4949]}]]